Weather History for Fortuna, CA

Change the Weather History Date:

Saturday, May 11, 2013

  Actual Average (KEKA) Record (KEKA)
Temperature  
Mean Temperature 55 °F 53 °F  
Max Temperature 62 °F 60 °F 71 °F (1960)
Min Temperature 48 °F 47 °F 36 °F (1887)
Degree Days  
Heating Degree Days 10 12  
Month to date heating degree days 135  
Since 1 July heating degree days 3956  
Cooling Degree Days 0 0  
Month to date cooling degree days 0  
Year to date cooling degree days 0  
Growing Degree Days 5 (Base 50)    
Moisture  
Dew Point 51 °F    
Average Humidity 89    
Maximum Humidity 100    
Minimum Humidity 72    
Precipitation  
Precipitation 0.00 in 0.06 in 1.15 in (1896)
Month to date precipitation 0.75  
Year to date precipitation 21.50  
Since 1 July precipitation 38.55  
Snow  
Snow 0.00 in 0.00 in 0.00 in (2002)
Month to date snowfall 0.0  
Since 1 July snowfall 0.2  
Snow Depth -    
Sea Level Pressure  
Sea Level Pressure 30.16 in    
Wind  
Wind Speed 6 mph (WNW)    
Max Wind Speed 16 mph    
Max Gust Speed 20 mph    
Visibility 7 miles    
Events      
T = Trace of Precipitation, MM = Missing Value Source: NWS Daily Summary

Daily Weather History Graph

Daily Weather History Graph

Search for Another Location

Airport:

Trip Planner

Search our weather history database for the weather conditions in past years. The results will help you decide how hot, cold, wet, or windy it might be!

Date:

Astronomy

May. 11, 2013 Rise Set
Actual Time 6:03 AM PDT 8:22 PM PDT
Civil Twilight 5:32 AM PDT 8:53 PM PDT
Nautical Twilight 4:55 AM PDT 9:31 PM PDT
Astronomical Twilight 4:13 AM PDT 10:13 PM PDT
Moon 7:15 AM PDT (5/11) 10:08 PM PDT (5/11)
Length of Visible Light 15h 20m
Length of Day
14h 19m
Waxing Crescent, 3% of the Moon is Illuminated
May 11
Waxing Crescent
May 17
First Quarter
May 24
Full
May 31
Last Quarter
Jun 8
New

Hourly Weather History & Observations

Time (PDT) Temp. Dew Point Humidity Pressure Visibility Wind Dir Wind Speed Gust Speed Precip Events Conditions
12:15 AM 48.2 °F 48.2 °F 100% 30.24 in 1.2 mi WNW 3.5 mph - N/A   Overcast
12:35 AM 48.2 °F 48.2 °F 100% 30.24 in 0.2 mi West 4.6 mph - N/A   Overcast
12:55 AM 48.2 °F 48.2 °F 100% 30.24 in 0.2 mi West 5.8 mph - N/A   Overcast
1:15 AM 48.2 °F 48.2 °F 100% 30.23 in 0.2 mi WNW 3.5 mph - N/A   Overcast
1:35 AM 48.2 °F 48.2 °F 100% 30.21 in 0.2 mi Calm Calm - N/A   Overcast
1:55 AM 48.2 °F 48.2 °F 100% 30.19 in 0.2 mi SE 5.8 mph - N/A   Overcast
2:15 AM 48.2 °F 48.2 °F 100% 30.20 in 0.2 mi Calm Calm - N/A   Overcast
2:35 AM 48.2 °F 48.2 °F 100% 30.20 in 0.2 mi Calm Calm - N/A   Overcast
2:55 AM 48.2 °F 48.2 °F 100% 30.20 in 0.2 mi Calm Calm - N/A   Overcast
3:15 AM 48.2 °F 48.2 °F 100% 30.20 in 0.2 mi Calm Calm - N/A   Overcast
3:35 AM 48.2 °F 48.2 °F 100% 30.19 in 0.2 mi SSE 4.6 mph - N/A   Overcast
3:55 AM 48.2 °F 48.2 °F 100% 30.18 in 0.2 mi SE 5.8 mph - N/A   Overcast
4:15 AM 48.2 °F 48.2 °F 100% 30.17 in 0.2 mi SE 9.2 mph - N/A   Overcast
4:35 AM 48.2 °F 48.2 °F 100% 30.16 in 0.2 mi ESE 8.1 mph - N/A   Overcast
4:55 AM 48.2 °F 48.2 °F 100% 30.15 in 0.2 mi SE 9.2 mph - N/A   Overcast
5:35 AM 48.2 °F 48.2 °F 100% 30.14 in 0.2 mi SE 9.2 mph - N/A   Overcast
5:55 AM 48.2 °F 48.2 °F 100% 30.15 in 0.2 mi SE 6.9 mph - N/A   Overcast
6:15 AM 48.2 °F 48.2 °F 100% 30.15 in 0.2 mi SE 8.1 mph - N/A   Overcast
6:35 AM 48.2 °F 48.2 °F 100% 30.14 in 0.2 mi SE 9.2 mph - N/A   Overcast
6:55 AM 48.2 °F 48.2 °F 100% 30.14 in 5.0 mi SE 11.5 mph - N/A   Scattered Clouds
7:15 AM 50.0 °F 50.0 °F 100% 30.13 in 10.0 mi SE 11.5 mph - N/A   Clear
7:35 AM 50.0 °F 50.0 °F 100% 30.12 in 10.0 mi SE 8.1 mph - N/A   Clear
7:55 AM 51.8 °F 50.0 °F 94% 30.12 in 10.0 mi SE 6.9 mph - N/A   Clear
8:15 AM 55.4 °F 51.8 °F 88% 30.11 in 10.0 mi SE 8.1 mph - N/A   Clear
8:35 AM 55.4 °F 53.6 °F 94% 30.11 in 10.0 mi SSE 6.9 mph - N/A   Clear
8:55 AM 57.2 °F 53.6 °F 88% 30.12 in 10.0 mi South 4.6 mph - N/A   Clear
9:15 AM 62.6 °F 53.6 °F 72% 30.12 in 10.0 mi Calm Calm - N/A   Clear
9:35 AM 57.2 °F 51.8 °F 82% 30.13 in 10.0 mi WNW 12.7 mph 17.3 mph N/A   Clear
9:55 AM 53.6 °F 51.8 °F 94% 30.14 in 10.0 mi NW 12.7 mph - N/A   Mostly Cloudy
10:15 AM 53.6 °F 50.0 °F 88% 30.15 in 10.0 mi NW 13.8 mph - N/A   Overcast
10:35 AM 53.6 °F 50.0 °F 88% 30.15 in 10.0 mi NW 15.0 mph - N/A   Overcast
10:55 AM 55.4 °F 51.8 °F 88% 30.15 in 10.0 mi WNW 9.2 mph - N/A   Mostly Cloudy
11:15 AM 55.4 °F 53.6 °F 94% 30.16 in 10.0 mi NW 8.1 mph - N/A   Partly Cloudy
11:35 AM 57.2 °F 53.6 °F 88% 30.16 in 10.0 mi NW 9.2 mph - N/A   Clear
11:55 AM 59.0 °F 55.4 °F 88% 30.15 in 10.0 mi NNW 9.2 mph - N/A   Clear
12:15 PM 59.0 °F 55.4 °F 88% 30.15 in 10.0 mi NW 9.2 mph - N/A   Clear
12:35 PM 59.0 °F 55.4 °F 88% 30.15 in 10.0 mi WNW 10.4 mph - N/A   Clear
12:55 PM 59.0 °F 55.4 °F 88% 30.14 in 10.0 mi NW 6.9 mph - N/A   Clear
1:15 PM 60.8 °F 55.4 °F 82% 30.14 in 10.0 mi NW 8.1 mph - N/A   Clear
1:35 PM 62.6 °F 55.4 °F 77% 30.13 in 10.0 mi NW 8.1 mph - N/A   Clear
1:55 PM 62.6 °F 55.4 °F 77% 30.13 in 10.0 mi NW 10.4 mph - N/A   Clear
2:15 PM 62.6 °F 55.4 °F 77% 30.14 in 10.0 mi NW 11.5 mph - N/A   Clear
2:35 PM 62.6 °F 55.4 °F 77% 30.14 in 10.0 mi NW 16.1 mph - N/A   Clear
2:55 PM 62.6 °F 53.6 °F 72% 30.14 in 10.0 mi NW 13.8 mph - N/A   Clear
3:15 PM 62.6 °F 53.6 °F 72% 30.14 in 10.0 mi WNW 12.7 mph - N/A   Clear
3:35 PM 62.6 °F 53.6 °F 72% 30.13 in 10.0 mi WNW 12.7 mph - N/A   Clear
3:55 PM 62.6 °F 53.6 °F 72% 30.13 in 10.0 mi WNW 11.5 mph - N/A   Clear
4:15 PM 62.6 °F 53.6 °F 72% 30.13 in 10.0 mi NW 13.8 mph - N/A   Clear
4:35 PM 60.8 °F 51.8 °F 72% 30.13 in 10.0 mi NW 16.1 mph - N/A   Clear
4:55 PM 59.0 °F 50.0 °F 72% 30.14 in 10.0 mi WNW 12.7 mph 19.6 mph N/A   Clear
5:15 PM 59.0 °F 50.0 °F 72% 30.14 in 10.0 mi WNW 10.4 mph - N/A   Clear
5:35 PM 57.2 °F 50.0 °F 77% 30.14 in 10.0 mi WNW 10.4 mph - N/A   Clear
5:55 PM 57.2 °F 50.0 °F 77% 30.14 in 10.0 mi WNW 6.9 mph - N/A   Clear
6:15 PM 59.0 °F 51.8 °F 77% 30.13 in 10.0 mi NW 6.9 mph - N/A   Clear
6:35 PM 59.0 °F 50.0 °F 72% 30.13 in 10.0 mi NW 4.6 mph - N/A   Clear
6:55 PM 59.0 °F 50.0 °F 72% 30.13 in 10.0 mi NW 4.6 mph - N/A   Clear
7:15 PM 59.0 °F 51.8 °F 77% 30.14 in 10.0 mi NW 6.9 mph - N/A   Clear
7:35 PM 57.2 °F 50.0 °F 77% 30.15 in 10.0 mi NW 9.2 mph - N/A   Clear
7:55 PM 55.4 °F 50.0 °F 82% 30.16 in 10.0 mi NW 10.4 mph - N/A   Clear
8:35 PM 51.8 °F 50.0 °F 94% 30.18 in 9.0 mi WNW 4.6 mph - N/A   Scattered Clouds
8:55 PM 51.8 °F 50.0 °F 94% 30.18 in 10.0 mi Calm Calm - N/A   Partly Cloudy
9:15 PM 53.6 °F 48.2 °F 82% 30.18 in 10.0 mi WNW 3.5 mph - N/A   Mostly Cloudy
9:35 PM 51.8 °F 48.2 °F 88% 30.18 in 10.0 mi Calm Calm - N/A   Overcast
9:55 PM 50.0 °F 48.2 °F 94% 30.18 in 10.0 mi SSE 4.6 mph - N/A   Mostly Cloudy
10:15 PM 50.0 °F 48.2 °F 94% 30.18 in 10.0 mi ESE 5.8 mph - N/A   Clear
10:35 PM 50.0 °F 48.2 °F 94% 30.18 in 10.0 mi ESE 4.6 mph - N/A   Clear
10:55 PM 50.0 °F 50.0 °F 100% 30.18 in 10.0 mi SE 3.5 mph - N/A   Clear
11:15 PM 50.0 °F 48.2 °F 94% 30.17 in 10.0 mi ESE 4.6 mph - N/A   Clear
11:35 PM 50.0 °F 48.2 °F 94% 30.18 in 10.0 mi SE 4.6 mph - N/A   Clear
11:55 PM 48.2 °F 48.2 °F 100% 30.18 in 10.0 mi SE 6.9 mph - N/A   Clear